Find Starlink 3386

NORAD ID: 51126 Int'l Des: 2022-005 Owner: SPXS Country: US Constellation: starlink operational
LEOCIRCULAR

現在のビュー

3D地球を読み込み中...

About Starlink 3386

Starlink 3386 (NORAD 51126) is a starlink constellation satellite (v1.5) launched Jan 19, 2022 by SPXS of US. It operates in LEO, CIRCULAR orbit with a mass of 297.00 kg.

次回通過

Passes for default location (London). Set your location on the main map for personalized predictions.

高度履歴

Loading altitude history...

軌道要素

1 51126U 22005Y 26264.87245862 .00001641 00000-0 64635-4 0 9996
2 51126 53.1569 123.5107 0001174 102.2294 257.8839 15.31700371258564
Epoch: Sep 21, 2026 • Age: 9 hours

現在のステータス

高度 477.3 km
遠地点 / 近地点 N/A
速度 7.63 km/s
衛星直下点 -21.40°S, 10.34°E
打ち上げ日 Jan 19, 2022
運用期間 4.6 years
タイプ internet

技術仕様

分類 Payload
質量 297.00 kg
乾燥質量 275.00 kg
長さ 0.20 m
スパン 9.00 m
形状 ? Box + pan
製造者 SPXS
バスタイプ Starlink
フェーズステータス In Orbit
所有者/国 SPXS/US

Most Searched